Weather History for Tacoma, WA

Change the Weather History Date:

Wednesday, September 25, 2013

  Actual Average Record
Temperature  
Mean Temperature 50 °F -  
Max Temperature 59 °F 66 °F 86 °F (1991)
Min Temperature 44 °F 43 °F 32 °F (1972)
Degree Days  
Heating Degree Days 14    
Moisture  
Dew Point 49 °F    
Average Humidity 95    
Maximum Humidity 100    
Minimum Humidity 65    
Precipitation  
Precipitation 0.24 in - - ()
Sea Level Pressure  
Sea Level Pressure 29.94 in    
Wind  
Wind Speed 3 mph (NE)    
Max Wind Speed 9 mph    
Max Gust Speed -    
Visibility 8 miles    
Events Rain    
Averages and records for this station are not official NWS values.
T = Trace of Precipitation, MM = Missing Value Source: NWS Daily Summary

Daily Weather History Graph

Daily Weather History Graph

Search for Another Location

Airport:

Trip Planner

Search our weather history database for the weather conditions in past years. The results will help you decide how hot, cold, wet, or windy it might be!

Date:

Astronomy

Sep. 25, 2013 Rise Set
Actual Time 7:01 AM PDT 7:00 PM PDT
Civil Twilight 6:30 AM PDT 7:31 PM PDT
Nautical Twilight 5:55 AM PDT 8:06 PM PDT
Astronomical Twilight 5:18 AM PDT 8:43 PM PDT
Moon 10:51 PM PDT (9/25) 1:31 PM PDT (9/25)
Length of Visible Light 13h 00m
Length of Day
11h 59m
Waning Gibbous, 63% of the Moon is Illuminated
Sep 25
Waning Gibbous
Sep 26
Last Quarter
Oct 4
New
Oct 11
First Quarter
Oct 18
Full

Hourly Weather History & Observations

Time (PDT) Temp. Windchill Dew Point Humidity Pressure Visibility Wind Dir Wind Speed Gust Speed Precip Events Conditions
12:38 AM 50.0 °F - 50.0 °F 100% 29.86 in 10.0 mi Calm Calm - N/A   Overcast
12:58 AM 50.4 °F - 50.2 °F 99% 29.88 in 10.0 mi Calm Calm - N/A   Overcast
1:03 AM 50.0 °F - 50.0 °F 100% 29.87 in 10.0 mi ESE 1.2 mph - N/A   Overcast
1:33 AM 50.0 °F - 50.0 °F 100% 29.87 in 10.0 mi Calm Calm - N/A   Overcast
1:58 AM 50.5 °F - 50.4 °F 99% 29.88 in 10.0 mi SSE 1.2 mph - N/A   Overcast
2:23 AM 50.0 °F - 50.0 °F 100% 29.87 in 10.0 mi SE 2.3 mph - N/A   Overcast
2:46 AM 50.0 °F - 50.0 °F 100% 29.87 in 10.0 mi SSE 2.3 mph - N/A   Light Drizzle
2:58 AM 50.4 °F - 50.2 °F 99% 29.88 in 10.0 mi Calm Calm - 0.00 in Rain Light Rain
3:02 AM 50.0 °F - 50.0 °F 100% 29.87 in 10.0 mi Calm Calm - N/A   Overcast
3:06 AM 50.0 °F - 50.0 °F 100% 29.87 in 10.0 mi NE 3.5 mph - N/A Rain Light Rain
3:11 AM 50.0 °F - 50.0 °F 100% 29.87 in 8.0 mi ENE 3.5 mph - N/A Rain Light Rain
3:20 AM 50.0 °F - 50.0 °F 100% 29.87 in 6.0 mi NE 3.5 mph - N/A Rain Light Rain
3:25 AM 50.0 °F - 50.0 °F 100% 29.87 in 4.0 mi NE 3.5 mph - N/A Rain Rain
3:30 AM 50.0 °F - 50.0 °F 100% 29.87 in 3.0 mi NE 2.3 mph - N/A Rain Rain
3:50 AM 50.0 °F - 50.0 °F 100% 29.87 in 5.0 mi ENE 3.5 mph - N/A Rain Light Rain
3:55 AM 50.0 °F - 50.0 °F 100% 29.87 in 6.0 mi East 3.5 mph - N/A Rain Light Rain
3:58 AM 49.8 °F - 49.6 °F 99% 29.88 in 7.0 mi East 2.3 mph - 0.08 in Rain Light Rain
4:33 AM 50.0 °F - 50.0 °F 100% 29.88 in 10.0 mi NNE 3.5 mph - N/A Rain Light Rain
4:38 AM 50.0 °F - 50.0 °F 100% 29.88 in 10.0 mi NE 2.3 mph - N/A Rain Light Rain
4:53 AM 50.0 °F - 50.0 °F 100% 29.88 in 10.0 mi NNE 1.2 mph - N/A Rain Light Rain
4:58 AM 50.0 °F - 49.6 °F 99% 29.90 in 10.0 mi NNE 2.3 mph - 0.03 in Rain Light Rain
5:03 AM 50.0 °F - 50.0 °F 100% 29.88 in 10.0 mi North 2.3 mph - N/A Rain Light Rain
5:08 AM 50.0 °F - 50.0 °F 100% 29.88 in 10.0 mi NNE 4.6 mph - N/A Rain Light Rain
5:13 AM 50.0 °F - 50.0 °F 100% 29.88 in 10.0 mi NNE 5.8 mph - N/A Rain Light Rain
5:23 AM 50.0 °F - 50.0 °F 100% 29.88 in 10.0 mi NNE 5.8 mph - N/A Rain Light Rain
5:28 AM 50.0 °F - 50.0 °F 100% 29.88 in 10.0 mi NNE 5.8 mph - N/A Rain Light Rain
5:38 AM 50.0 °F - 50.0 °F 100% 29.88 in 10.0 mi NNE 6.9 mph - N/A Rain Light Rain
5:43 AM 50.0 °F - 50.0 °F 100% 29.88 in 10.0 mi NNE 5.8 mph - N/A Rain Light Rain
5:48 AM 50.0 °F - 50.0 °F 100% 29.88 in 10.0 mi NNE 5.8 mph - N/A Rain Light Rain
5:53 AM 50.0 °F - 50.0 °F 100% 29.88 in 10.0 mi NNE 5.8 mph - N/A Rain Light Rain
5:58 AM 49.6 °F - 49.1 °F 98% 29.91 in 10.0 mi NNE 5.8 mph - 0.01 in Rain Light Rain
6:08 AM 50.0 °F - 50.0 °F 100% 29.89 in 10.0 mi North 4.6 mph - N/A Rain Light Rain
6:38 AM 50.0 °F - 50.0 °F 100% 29.89 in 10.0 mi North 4.6 mph - N/A Rain Light Rain
6:43 AM 50.0 °F - 50.0 °F 100% 29.90 in 10.0 mi North 4.6 mph - N/A Rain Light Rain
6:53 AM 50.0 °F - 50.0 °F 100% 29.90 in 9.0 mi NNE 3.5 mph - N/A Rain Light Rain
6:58 AM 50.2 °F - 49.8 °F 99% 29.91 in 9.0 mi NE 2.3 mph - 0.01 in Rain Light Rain
6:59 AM 50.0 °F - 50.0 °F 100% 29.90 in 9.0 mi NE 2.3 mph - N/A Rain Light Rain
7:14 AM 50.0 °F - 50.0 °F 100% 29.90 in 8.0 mi NNE 1.2 mph - N/A Rain Light Rain
7:39 AM 50.0 °F - 50.0 °F 100% 29.91 in 2.0 mi NE 2.3 mph - N/A Rain Light Rain
7:44 AM 50.0 °F - 50.0 °F 100% 29.91 in 2.5 mi Variable 3.5 mph - N/A Rain Light Rain
7:49 AM 50.0 °F - 50.0 °F 100% 29.91 in 4.0 mi North 3.5 mph - N/A Rain Light Rain
7:58 AM 50.2 °F - 50.0 °F 99% 29.93 in 3.0 mi NNE 4.6 mph - 0.04 in Rain Light Rain
8:03 AM 50.0 °F - 50.0 °F 100% 29.91 in 2.5 mi NNE 6.9 mph - N/A Rain Light Rain
8:08 AM 50.0 °F - 50.0 °F 100% 29.91 in 2.5 mi NNE 5.8 mph - N/A Rain Heavy Rain
8:18 AM 50.0 °F - 50.0 °F 100% 29.92 in 3.0 mi North 6.9 mph - N/A Rain Light Rain
8:32 AM 50.0 °F - 50.0 °F 100% 29.92 in 10.0 mi North 5.8 mph - N/A   Overcast
8:47 AM 50.0 °F - 50.0 °F 100% 29.92 in 10.0 mi North 8.1 mph - N/A   Overcast
8:49 AM 50.0 °F - 50.0 °F 100% 29.92 in 10.0 mi North 8.1 mph - N/A   Light Drizzle
8:58 AM 50.5 °F - 50.4 °F 99% 29.95 in 9.0 mi NNW 6.9 mph - 0.05 in Rain Light Rain
9:03 AM 50.0 °F - 50.0 °F 100% 29.93 in 9.0 mi North 6.9 mph - N/A Rain Light Rain
9:58 AM 50.7 °F - 50.5 °F 99% 29.96 in 6.0 mi North 5.8 mph - 0.02 in Rain Light Rain
10:12 AM 51.8 °F - 50.0 °F 94% 29.94 in 10.0 mi NNE 5.8 mph - N/A   Overcast
10:18 AM 51.8 °F - 50.0 °F 94% 29.95 in 10.0 mi NNE 4.6 mph - N/A   Light Drizzle
10:23 AM 51.8 °F - 50.0 °F 94% 29.95 in 7.0 mi NE 4.6 mph - N/A   Light Drizzle
10:28 AM 51.8 °F - 50.0 °F 94% 29.95 in 6.0 mi NNE 6.9 mph - N/A Rain Light Rain
10:43 AM 51.8 °F - 50.0 °F 94% 29.95 in 10.0 mi NNE 8.1 mph - N/A Rain Light Rain
10:50 AM 51.8 °F - 50.0 °F 94% 29.95 in 10.0 mi NNE 8.1 mph - N/A   Overcast
10:58 AM 51.3 °F - 50.4 °F 97% 29.96 in 10.0 mi NNE 6.9 mph - 0.00 in   Overcast
10:59 AM 51.8 °F - 50.0 °F 94% 29.95 in 10.0 mi NNE 6.9 mph - N/A   Overcast
11:29 AM 51.8 °F - 50.0 °F 94% 29.95 in 10.0 mi NNE 8.1 mph - N/A   Overcast
11:44 AM 51.8 °F - 50.0 °F 94% 29.96 in 10.0 mi NNE 9.2 mph - N/A   Overcast
11:58 AM 52.3 °F - 50.2 °F 92% 29.98 in 10.0 mi NNE 6.9 mph - N/A   Overcast
12:03 PM 51.8 °F - 50.0 °F 94% 29.96 in 10.0 mi NNE 5.8 mph - N/A   Overcast
12:13 PM 53.6 °F - 50.0 °F 88% 29.96 in 10.0 mi NE 3.5 mph - N/A   Overcast
12:43 PM 53.6 °F - 50.0 °F 88% 29.97 in 10.0 mi NNE 8.1 mph - N/A   Overcast
12:58 PM 53.6 °F - 49.8 °F 87% 29.99 in 10.0 mi NE 6.9 mph - N/A   Overcast
1:08 PM 53.6 °F - 50.0 °F 88% 29.97 in 10.0 mi NNE 8.1 mph - N/A   Overcast
1:13 PM 53.6 °F - 50.0 °F 88% 29.97 in 10.0 mi NNE 8.1 mph - N/A   Overcast
1:23 PM 53.6 °F - 50.0 °F 88% 29.97 in 10.0 mi NE 5.8 mph - N/A   Overcast
1:58 PM 55.0 °F - 48.9 °F 80% 29.99 in 10.0 mi Variable 5.8 mph - N/A   Overcast
2:58 PM 56.1 °F - 47.3 °F 72% 30.01 in 10.0 mi NE 4.6 mph - N/A   Overcast
3:58 PM 56.3 °F - 46.8 °F 70% 30.01 in 10.0 mi North 5.8 mph - N/A   Mostly Cloudy
4:58 PM 57.6 °F - 46.2 °F 66% 30.01 in 9.0 mi Variable 4.6 mph - N/A   Mostly Cloudy
5:58 PM 57.9 °F - 46.2 °F 65% 30.01 in 8.0 mi NE 2.3 mph - N/A   Overcast
6:23 PM 57.2 °F - 46.4 °F 67% 30.01 in 2.5 mi ESE 2.3 mph - N/A   Haze
6:38 PM 57.2 °F - 46.4 °F 67% 30.01 in 2.0 mi South 2.3 mph - N/A   Haze
6:48 PM 55.4 °F - 46.4 °F 72% 30.01 in 2.5 mi South 3.5 mph - N/A   Haze
6:53 PM 55.4 °F - 46.4 °F 72% 30.01 in 3.0 mi SSE 4.6 mph - N/A   Haze
6:58 PM 54.7 °F - 46.6 °F 74% 30.03 in 4.0 mi SSE 2.3 mph - N/A   Haze
7:58 PM 50.4 °F - 48.4 °F 93% 30.04 in 3.0 mi SSE 3.5 mph - N/A   Mostly Cloudy
8:08 PM 50.0 °F - 48.2 °F 94% 30.02 in 3.0 mi South 2.3 mph - N/A   Mostly Cloudy
8:23 PM 50.0 °F - 50.0 °F 100% 30.02 in 2.5 mi South 3.5 mph - N/A   Mostly Cloudy
8:28 PM 51.8 °F - 50.0 °F 94% 30.02 in 2.0 mi South 3.5 mph - N/A   Mostly Cloudy
8:33 PM 50.0 °F - 50.0 °F 100% 30.02 in 10.0 mi SSE 2.3 mph - N/A   Mostly Cloudy
8:58 PM 49.3 °F - 48.4 °F 97% 30.05 in 10.0 mi ESE 1.2 mph - N/A   Mostly Cloudy
9:58 PM 47.8 °F - 47.5 °F 99% 30.06 in 10.0 mi Calm Calm - N/A   Mostly Cloudy
10:58 PM 46.8 °F - 46.6 °F 99% 30.06 in 8.0 mi SE 3.5 mph - N/A   Scattered Clouds
11:08 PM 46.4 °F - 46.4 °F 100% 30.04 in 2.5 mi Calm Calm - N/A   Partly Cloudy
11:13 PM 46.4 °F - 46.4 °F 100% 30.04 in 1.0 mi Calm Calm - N/A   Partly Cloudy
11:18 PM 46.4 °F - 46.4 °F 100% 30.04 in 0.8 mi SSW 2.3 mph - N/A   Clear
11:23 PM 46.4 °F 45.2 °F 46.4 °F 100% 30.04 in 1.5 mi South 3.5 mph - N/A   Clear
11:28 PM 46.4 °F 45.2 °F 44.6 °F 93% 30.04 in 9.0 mi South 3.5 mph - N/A   Clear
11:48 PM 44.6 °F - 44.6 °F 100% 30.04 in 1.2 mi East 2.3 mph - N/A   Clear
11:53 PM 44.6 °F 43.1 °F 44.6 °F 100% 30.04 in 1.0 mi East 3.5 mph - N/A   Clear
11:58 PM 44.6 °F 42.2 °F 44.6 °F 100% 30.06 in 3.0 mi East 4.6 mph - N/A   Clear